| time (UTC) | temp C | wind direction | speed KPH | gust KPH | rain 1hr cm | rain 24hr cm | rain mn cm | humidity % | barometer mb |
| 20260906065536 | 27 | 279 | 3.2 | 11.3 | 0.00 | 0.00 | 0.00 | 32 | 1018.8 |
| 20260906065019 | 26 | 221 | 0.0 | 4.8 | 0.00 | 0.00 | 0.00 | 35 | 1018.7 |
| 20260906064556 | 26 | 331 | 1.6 | 9.7 | 0.00 | 0.00 | 0.00 | 34 | 1018.8 |
| 20260906064047 | 25 | 313 | 1.6 | 6.4 | 0.00 | 0.00 | 0.00 | 35 | 1018.6 |
| 20260906063514 | 24 | 14 | 0.0 | 4.8 | 0.00 | 0.00 | 0.00 | 37 | 1018.6 |
| 20260906063016 | 24 | 302 | 0.0 | 6.4 | 0.00 | 0.00 | 0.00 | 38 | 1018.7 |
| 20260906062546 | 23 | 355 | 0.0 | 6.4 | 0.00 | 0.00 | 0.00 | 37 | 1018.5 |
| 20260906062034 | 23 | 89 | 1.6 | 6.4 | 0.00 | 0.00 | 0.00 | 38 | 1018.5 |
| 20260906061516 | 23 | 21 | 0.0 | 4.8 | 0.00 | 0.00 | 0.00 | 38 | 1018.5 |
| 20260906061016 | 23 | 9 | 0.0 | 3.2 | 0.00 | 0.00 | 0.00 | 38 | 1018.5 |
| 20260906060536 | 23 | 197 | 0.0 | 3.2 | 0.00 | 0.00 | 0.00 | 39 | 1018.4 |
| 20260906060052 | 23 | 205 | 0.0 | 3.2 | 0.00 | 0.00 | 0.00 | 39 | 1018.3 |
| 20260906055530 | 23 | 241 | 0.0 | 3.2 | 0.00 | 0.00 | 0.00 | 39 | 1018.4 |
| 20260906055014 | 23 | 240 | 0.0 | 6.4 | 0.00 | 0.00 | 0.00 | 39 | 1018.4 |
| 20260906054547 | 23 | 355 | 1.6 | 4.8 | 0.00 | 0.00 | 0.00 | 39 | 1018.3 |
| 20260906054036 | 22 | 295 | 1.6 | 4.8 | 0.00 | 0.00 | 0.00 | 40 | 1018.3 |
| 20260906053600 | 22 | 273 | 0.0 | 4.8 | 0.00 | 0.00 | 0.00 | 40 | 1018.3 |
| 20260906053039 | 22 | 219 | 0.0 | 3.2 | 0.00 | 0.00 | 0.00 | 41 | 1018.3 |
| 20260906052520 | 21 | 311 | 0.0 | 3.2 | 0.00 | 0.00 | 0.00 | 43 | 1018.2 |
| 20260906052042 | 21 | 296 | 0.0 | 6.4 | 0.00 | 0.00 | 0.00 | 43 | 1018.2 |
| 20260906051602 | 21 | 14 | 0.0 | 6.4 | 0.00 | 0.00 | 0.00 | 45 | 1018.2 |
| 20260906051035 | 20 | 26 | 0.0 | 0.0 | 0.00 | 0.00 | 0.00 | 47 | 1018.2 |
| 20260906050600 | 20 | 99 | 0.0 | 0.0 | 0.00 | 0.00 | 0.00 | 48 | 1018.1 |
| 20260906050104 | 20 | 103 | 0.0 | 0.0 | 0.00 | 0.00 | 0.00 | 49 | 1018.2 |
| 20260906045504 | 20 | 63 | 0.0 | 0.0 | 0.00 | 0.00 | 0.00 | 50 | 1018.2 |
| 20260906045052 | 20 | 96 | 0.0 | 0.0 | 0.00 | 0.00 | 0.00 | 50 | 1018.2 |
| 20260906044523 | 20 | 91 | 0.0 | 0.0 | 0.00 | 0.00 | 0.00 | 51 | 1018.1 |
| 20260906044025 | 20 | 110 | 0.0 | 0.0 | 0.00 | 0.00 | 0.00 | 52 | 1018.1 |
| 20260906043516 | 20 | 67 | 0.0 | 0.0 | 0.00 | 0.00 | 0.00 | 51 | 1018.1 |
| 20260906043029 | 20 | 67 | 0.0 | 0.0 | 0.00 | 0.00 | 0.00 | 51 | 1018.1 |
| 20260906042555 | 20 | 67 | 0.0 | 0.0 | 0.00 | 0.00 | 0.00 | 51 | 1018.1 |
| 20260906042054 | 21 | 57 | 0.0 | 0.0 | 0.00 | 0.00 | 0.00 | 50 | 1018.1 |
| 20260906041538 | 21 | 46 | 0.0 | 0.0 | 0.00 | 0.00 | 0.00 | 49 | 1018.1 |
| 20260906041032 | 21 | 44 | 0.0 | 0.0 | 0.00 | 0.00 | 0.00 | 49 | 1018.0 |
| 20260906040504 | 21 | 44 | 0.0 | 0.0 | 0.00 | 0.00 | 0.00 | 48 | 1018.1 |
| 20260906040014 | 21 | 44 | 0.0 | 0.0 | 0.00 | 0.00 | 0.00 | 47 | 1018.1 |
| 20260906035546 | 21 | 61 | 0.0 | 0.0 | 0.00 | 0.00 | 0.00 | 47 | 1017.9 |
| 20260906035042 | 21 | 72 | 0.0 | 0.0 | 0.00 | 0.00 | 0.00 | 46 | 1018.1 |
| 20260906034535 | 21 | 66 | 0.0 | 0.0 | 0.00 | 0.00 | 0.00 | 46 | 1018.1 |
| 20260906034031 | 21 | 90 | 0.0 | 0.0 | 0.00 | 0.00 | 0.00 | 45 | 1018.1 |
| 20260906033505 | 21 | 72 | 0.0 | 0.0 | 0.00 | 0.00 | 0.00 | 45 | 1018.0 |
| 20260906033046 | 21 | 96 | 0.0 | 0.0 | 0.00 | 0.00 | 0.00 | 45 | 1017.9 |
| 20260906032508 | 21 | 94 | 0.0 | 0.0 | 0.00 | 0.00 | 0.00 | 45 | 1017.9 |
| 20260906032004 | 21 | 334 | 0.0 | 0.0 | 0.00 | 0.00 | 0.00 | 45 | 1018.0 |
| 20260906031548 | 21 | 39 | 0.0 | 0.0 | 0.00 | 0.00 | 0.00 | 45 | 1017.9 |
| 20260906031039 | 20 | 67 | 0.0 | 0.0 | 0.00 | 0.00 | 0.00 | 46 | 1018.0 |
| 20260906030508 | 20 | 73 | 0.0 | 0.0 | 0.00 | 0.00 | 0.00 | 47 | 1017.9 |
| 20260906030022 | 20 | 51 | 0.0 | 0.0 | 0.00 | 0.00 | 0.00 | 47 | 1018.0 |
| 20260906025548 | 20 | 51 | 0.0 | 0.0 | 0.00 | 0.00 | 0.00 | 48 | 1018.0 |
| 20260906025050 | 19 | 115 | 0.0 | 0.0 | 0.00 | 0.00 | 0.00 | 48 | 1018.0 |
| 20260906024537 | 19 | 115 | 0.0 | 0.0 | 0.00 | 0.00 | 0.00 | 48 | 1018.1 |
| 20260906024032 | 19 | 115 | 0.0 | 0.0 | 0.00 | 0.00 | 0.00 | 48 | 1017.8 |
| 20260906023504 | 19 | 108 | 0.0 | 0.0 | 0.00 | 0.00 | 0.00 | 48 | 1018.0 |
| 20260906023048 | 19 | 131 | 0.0 | 0.0 | 0.00 | 0.00 | 0.00 | 49 | 1017.9 |
| 20260906022511 | 19 | 131 | 0.0 | 0.0 | 0.00 | 0.00 | 0.00 | 49 | 1017.9 |
| 20260906022012 | 19 | 114 | 0.0 | 0.0 | 0.00 | 0.00 | 0.00 | 49 | 1017.9 |
| 20260906021602 | 19 | 114 | 0.0 | 0.0 | 0.00 | 0.00 | 0.00 | 49 | 1017.9 |
| 20260906021056 | 19 | 114 | 0.0 | 0.0 | 0.00 | 0.00 | 0.00 | 49 | 1017.8 |
| 20260906020530 | 19 | 114 | 0.0 | 0.0 | 0.00 | 0.00 | 0.00 | 49 | 1017.8 |
| 20260906020046 | 19 | 114 | 0.0 | 0.0 | 0.00 | 0.00 | 0.00 | 50 | 1017.9 |
| 20260906015508 | 19 | 114 | 0.0 | 0.0 | 0.00 | 0.00 | 0.00 | 49 | 1017.9 |
| 20260906015008 | 19 | 114 | 0.0 | 0.0 | 0.00 | 0.00 | 0.00 | 49 | 1017.9 |
| 20260906014556 | 19 | 114 | 0.0 | 0.0 | 0.00 | 0.00 | 0.00 | 49 | 1017.9 |
| 20260906014053 | 19 | 114 | 0.0 | 0.0 | 0.00 | 0.00 | 0.00 | 49 | 1017.9 |
| 20260906013522 | 19 | 114 | 0.0 | 0.0 | 0.00 | 0.00 | 0.00 | 49 | 1017.9 |
| 20260906013036 | 19 | 114 | 0.0 | 0.0 | 0.00 | 0.00 | 0.00 | 49 | 1018.0 |
| 20260906012559 | 20 | 114 | 0.0 | 0.0 | 0.00 | 0.00 | 0.00 | 49 | 1018.0 |
| 20260906012056 | 20 | 114 | 0.0 | 0.0 | 0.00 | 0.00 | 0.00 | 49 | 1018.1 |
| 20260906011557 | 20 | 114 | 0.0 | 0.0 | 0.00 | 0.00 | 0.00 | 49 | 1018.0 |
| 20260906011036 | 20 | 114 | 0.0 | 0.0 | 0.00 | 0.00 | 0.00 | 48 | 1018.0 |
| 20260906010503 | 20 | 114 | 0.0 | 0.0 | 0.00 | 0.00 | 0.00 | 48 | 1018.1 |
| 20260906010006 | 20 | 114 | 0.0 | 0.0 | 0.00 | 0.00 | 0.00 | 48 | 1018.2 |
| 20260906005538 | 20 | 114 | 0.0 | 0.0 | 0.00 | 0.00 | 0.00 | 48 | 1018.1 |
| 20260906005034 | 20 | 114 | 0.0 | 0.0 | 0.00 | 0.00 | 0.00 | 48 | 1018.2 |
| 20260906004512 | 20 | 114 | 0.0 | 0.0 | 0.00 | 0.00 | 0.00 | 48 | 1018.3 |
| 20260906004006 | 20 | 114 | 0.0 | 0.0 | 0.00 | 0.00 | 0.00 | 47 | 1018.2 |
| 20260906003536 | 20 | 114 | 0.0 | 0.0 | 0.00 | 0.00 | 0.00 | 47 | 1018.2 |
| 20260906003038 | 20 | 114 | 0.0 | 0.0 | 0.00 | 0.00 | 0.00 | 47 | 1018.3 |
| 20260906002508 | 20 | 114 | 0.0 | 0.0 | 0.00 | 0.00 | 0.00 | 46 | 1018.3 |
| 20260906002004 | 21 | 114 | 0.0 | 0.0 | 0.00 | 0.00 | 0.00 | 46 | 1018.3 |
| 20260906001546 | 21 | 114 | 0.0 | 0.0 | 0.00 | 0.00 | 0.00 | 46 | 1018.3 |
| 20260906001033 | 21 | 114 | 0.0 | 0.0 | 0.00 | 0.00 | 0.00 | 45 | 1018.3 |
| 20260906000600 | 21 | 114 | 0.0 | 0.0 | 0.00 | 0.00 | 0.00 | 44 | 1018.1 |
| 20260906000046 | 21 | 114 | 0.0 | 0.0 | 0.00 | 0.00 | 0.00 | 44 | 1018.1 |
| 20260905235556 | 21 | 114 | 0.0 | 0.0 | 0.00 | 0.00 | 0.00 | 43 | 1018.2 |
| 20260905235050 | 22 | 114 | 0.0 | 0.0 | 0.00 | 0.00 | 0.00 | 43 | 1018.1 |
| 20260905234548 | 22 | 114 | 0.0 | 0.0 | 0.00 | 0.00 | 0.00 | 42 | 1018.1 |
| 20260905234038 | 22 | 114 | 0.0 | 0.0 | 0.00 | 0.00 | 0.00 | 41 | 1018.2 |
| 20260905233536 | 22 | 114 | 0.0 | 0.0 | 0.00 | 0.00 | 0.00 | 41 | 1018.2 |
| 20260905233039 | 23 | 114 | 0.0 | 0.0 | 0.00 | 0.00 | 0.00 | 41 | 1018.2 |
| 20260905232502 | 23 | 114 | 0.0 | 0.0 | 0.00 | 0.00 | 0.00 | 40 | 1018.2 |
| 20260905232047 | 23 | 114 | 0.0 | 3.2 | 0.00 | 0.00 | 0.00 | 40 | 1018.2 |
| 20260905231508 | 23 | 114 | 0.0 | 4.8 | 0.00 | 0.00 | 0.00 | 40 | 1018.2 |
| 20260905231102 | 23 | 110 | 0.0 | 4.8 | 0.00 | 0.00 | 0.00 | 39 | 1018.2 |
| 20260905230502 | 23 | 118 | 0.0 | 6.4 | 0.00 | 0.00 | 0.00 | 39 | 1018.3 |
| 20260905230055 | 23 | 116 | 1.6 | 6.4 | 0.00 | 0.00 | 0.00 | 38 | 1018.4 |
| 20260905225559 | 23 | 79 | 1.6 | 4.8 | 0.00 | 0.00 | 0.00 | 38 | 1018.3 |
| 20260905225501 | 23 | 84 | 1.6 | 4.8 | 0.00 | 0.00 | 0.00 | 38 | 1018.4 |
| 20260905225052 | 23 | 78 | 1.6 | 4.8 | 0.00 | 0.00 | 0.00 | 39 | 1018.3 |
| 20260905224503 | 23 | 103 | 0.0 | 4.8 | 0.00 | 0.00 | 0.00 | 40 | 1018.5 |
| 20260905224050 | 23 | 111 | 1.6 | 4.8 | 0.00 | 0.00 | 0.00 | 39 | 1018.5 |
| 20260905223555 | 23 | 148 | 1.6 | 4.8 | 0.00 | 0.00 | 0.00 | 40 | 1018.4 |
| 20260905223008 | 23 | 117 | 0.0 | 3.2 | 0.00 | 0.00 | 0.00 | 40 | 1018.5 |
| 20260905222531 | 24 | 119 | 0.0 | 3.2 | 0.00 | 0.00 | 0.00 | 39 | 1018.5 |
| 20260905222018 | 24 | 34 | 0.0 | 3.2 | 0.00 | 0.00 | 0.00 | 39 | 1018.6 |
| 20260905221510 | 24 | 105 | 0.0 | 6.4 | 0.00 | 0.00 | 0.00 | 40 | 1018.6 |
| 20260905221009 | 24 | 81 | 1.6 | 9.7 | 0.00 | 0.00 | 0.00 | 39 | 1018.6 |
| 20260905220518 | 24 | 98 | 3.2 | 9.7 | 0.00 | 0.00 | 0.00 | 39 | 1018.6 |
| 20260905220016 | 24 | 79 | 1.6 | 8.0 | 0.00 | 0.00 | 0.00 | 40 | 1018.7 |
| 20260905215543 | 23 | 103 | 3.2 | 9.7 | 0.00 | 0.00 | 0.00 | 40 | 1018.7 |
| 20260905215030 | 23 | 77 | 3.2 | 9.7 | 0.00 | 0.00 | 0.00 | 40 | 1018.6 |
| 20260905214601 | 23 | 105 | 0.0 | 4.8 | 0.00 | 0.00 | 0.00 | 41 | 1018.8 |
| 20260905214049 | 23 | 106 | 0.0 | 4.8 | 0.00 | 0.00 | 0.00 | 41 | 1018.8 |
| 20260905213536 | 23 | 105 | 1.6 | 4.8 | 0.00 | 0.00 | 0.00 | 41 | 1018.8 |
| 20260905213031 | 23 | 238 | 0.0 | 4.8 | 0.00 | 0.00 | 0.00 | 42 | 1018.8 |
| 20260905212550 | 23 | 238 | 1.6 | 8.0 | 0.00 | 0.00 | 0.00 | 42 | 1018.8 |
| 20260905212040 | 23 | 261 | 1.6 | 8.0 | 0.00 | 0.00 | 0.00 | 42 | 1018.7 |
| 20260905211611 | 23 | 9 | 1.6 | 8.0 | 0.00 | 0.00 | 0.00 | 42 | 1018.7 |
| 20260905211031 | 22 | 86 | 0.0 | 8.0 | 0.00 | 0.00 | 0.00 | 43 | 1018.7 |
| 20260905210547 | 22 | 76 | 1.6 | 8.0 | 0.00 | 0.00 | 0.00 | 45 | 1018.7 |
| 20260905210040 | 22 | 257 | 0.0 | 4.8 | 0.00 | 0.00 | 0.00 | 46 | 1018.6 |
| 20260905205511 | 21 | 78 | 0.0 | 4.8 | 0.00 | 0.00 | 0.00 | 46 | 1018.6 |
| 20260905205011 | 21 | 213 | 0.0 | 4.8 | 0.00 | 0.00 | 0.00 | 47 | 1018.6 |
| 20260905204558 | 21 | 78 | 0.0 | 4.8 | 0.00 | 0.00 | 0.00 | 48 | 1018.7 |
| 20260905204053 | 21 | 26 | 0.0 | 4.8 | 0.00 | 0.00 | 0.00 | 49 | 1018.7 |
| 20260905203524 | 20 | 50 | 0.0 | 4.8 | 0.00 | 0.00 | 0.00 | 50 | 1018.6 |
| 20260905203056 | 20 | 28 | 0.0 | 4.8 | 0.00 | 0.00 | 0.00 | 50 | 1018.6 |
| 20260905202526 | 20 | 72 | 0.0 | 3.2 | 0.00 | 0.00 | 0.00 | 50 | 1018.6 |
| 20260905202028 | 20 | 72 | 0.0 | 3.2 | 0.00 | 0.00 | 0.00 | 50 | 1018.6 |
| 20260905201511 | 20 | 72 | 0.0 | 3.2 | 0.00 | 0.00 | 0.00 | 50 | 1018.7 |
| 20260905201009 | 20 | 68 | 0.0 | 3.2 | 0.00 | 0.00 | 0.00 | 49 | 1018.6 |
| 20260905200542 | 20 | 68 | 0.0 | 3.2 | 0.00 | 0.00 | 0.00 | 49 | 1018.6 |
| 20260905200053 | 21 | 68 | 0.0 | 3.2 | 0.00 | 0.00 | 0.00 | 48 | 1018.6 |
| 20260905195531 | 21 | 68 | 0.0 | 0.0 | 0.00 | 0.00 | 0.00 | 47 | 1018.6 |
| 20260905195022 | 21 | 68 | 0.0 | 0.0 | 0.00 | 0.00 | 0.00 | 47 | 1018.5 |
| 20260905194504 | 21 | 68 | 0.0 | 0.0 | 0.00 | 0.00 | 0.00 | 47 | 1018.6 |
| 20260905194005 | 21 | 68 | 0.0 | 3.2 | 0.00 | 0.00 | 0.00 | 47 | 1018.6 |
| 20260905193539 | 21 | 68 | 0.0 | 3.2 | 0.00 | 0.00 | 0.00 | 47 | 1018.6 |
| 20260905193014 | 21 | 63 | 0.0 | 1.6 | 0.00 | 0.00 | 0.00 | 47 | 1018.7 |
| 20260905192546 | 21 | 63 | 0.0 | 3.2 | 0.00 | 0.00 | 0.00 | 46 | 1018.5 |
| 20260905192046 | 22 | 63 | 0.0 | 3.2 | 0.00 | 0.00 | 0.00 | 46 | 1018.4 |
| 20260905191527 | 22 | 63 | 0.0 | 3.2 | 0.00 | 0.00 | 0.00 | 46 | 1018.5 |
| 20260905191021 | 22 | 63 | 0.0 | 3.2 | 0.00 | 0.00 | 0.00 | 46 | 1018.5 |
| 20260905190552 | 22 | 63 | 0.0 | 3.2 | 0.00 | 0.00 | 0.00 | 46 | 1018.5 |
| 20260905190107 | 22 | 63 | 0.0 | 3.2 | 0.00 | 0.00 | 0.00 | 45 | 1018.5 |
| 20260905185529 | 22 | 63 | 0.0 | 3.2 | 0.00 | 0.00 | 0.00 | 44 | 1018.5 |
| 20260905185023 | 22 | 64 | 0.0 | 3.2 | 0.00 | 0.00 | 0.00 | 44 | 1018.5 |
| 20260905184528 | 23 | 64 | 0.0 | 3.2 | 0.00 | 0.00 | 0.00 | 43 | 1018.4 |
| 20260905184009 | 23 | 30 | 0.0 | 3.2 | 0.00 | 0.00 | 0.00 | 43 | 1018.4 |
| 20260905183543 | 23 | 45 | 0.0 | 3.2 | 0.00 | 0.00 | 0.00 | 43 | 1018.4 |
| 20260905183055 | 23 | 30 | 0.0 | 4.8 | 0.00 | 0.00 | 0.00 | 43 | 1018.4 |
| 20260905182531 | 23 | 40 | 1.6 | 4.8 | 0.00 | 0.00 | 0.00 | 43 | 1018.4 |
| 20260905182026 | 23 | 306 | 0.0 | 6.4 | 0.00 | 0.00 | 0.00 | 42 | 1018.4 |
| 20260905181512 | 23 | 58 | 3.2 | 6.4 | 0.00 | 0.00 | 0.00 | 43 | 1018.4 |
| 20260905181006 | 23 | 47 | 1.6 | 8.0 | 0.00 | 0.00 | 0.00 | 42 | 1018.3 |
| 20260905180538 | 23 | 40 | 0.0 | 8.0 | 0.00 | 0.00 | 0.00 | 42 | 1018.3 |
| 20260905180051 | 23 | 36 | 1.6 | 4.8 | 0.00 | 0.00 | 0.00 | 42 | 1018.3 |
| 20260905175513 | 23 | 34 | 0.0 | 9.7 | 0.00 | 0.00 | 0.00 | 41 | 1018.2 |
| 20260905175012 | 23 | 332 | 0.0 | 9.7 | 0.00 | 0.00 | 0.00 | 41 | 1018.2 |
| 20260905174553 | 23 | 17 | 1.6 | 9.7 | 0.00 | 0.00 | 0.00 | 40 | 1018.2 |
| 20260905174053 | 23 | 69 | 3.2 | 14.5 | 0.00 | 0.00 | 0.00 | 40 | 1018.2 |
| 20260905173521 | 23 | 42 | 1.6 | 9.7 | 0.00 | 0.00 | 0.00 | 39 | 1017.9 |
| 20260905173023 | 24 | 61 | 3.2 | 12.9 | 0.00 | 0.00 | 0.00 | 39 | 1018.0 |
| 20260905172557 | 24 | 27 | 4.8 | 14.5 | 0.00 | 0.00 | 0.00 | 38 | 1018.0 |
| 20260905172005 | 24 | 336 | 3.2 | 14.5 | 0.00 | 0.00 | 0.00 | 38 | 1018.0 |
| 20260905171543 | 24 | 20 | 1.6 | 9.7 | 0.00 | 0.00 | 0.00 | 38 | 1017.9 |
| 20260905171030 | 25 | 9 | 3.2 | 12.9 | 0.00 | 0.00 | 0.00 | 37 | 1018.0 |
| 20260905170559 | 25 | 61 | 3.2 | 14.5 | 0.00 | 0.00 | 0.00 | 36 | 1018.0 |
| 20260905170009 | 25 | 36 | 8.0 | 14.5 | 0.00 | 0.00 | 0.00 | 37 | 1017.9 |
| 20260905165540 | 25 | 44 | 1.6 | 12.9 | 0.00 | 0.00 | 0.00 | 37 | 1017.9 |
| 20260905165033 | 25 | 30 | 3.2 | 12.9 | 0.00 | 0.00 | 0.00 | 37 | 1018.0 |
| 20260905164519 | 26 | 32 | 3.2 | 9.7 | 0.00 | 0.00 | 0.00 | 37 | 1018.0 |
| 20260905164015 | 26 | 39 | 1.6 | 14.5 | 0.00 | 0.00 | 0.00 | 38 | 1017.9 |
| 20260905163550 | 26 | 54 | 3.2 | 14.5 | 0.00 | 0.00 | 0.00 | 35 | 1017.9 |
| 20260905163111 | 26 | 34 | 3.2 | 14.5 | 0.00 | 0.00 | 0.00 | 35 | 1017.9 |
| 20260905163003 | 26 | 51 | 1.6 | 14.5 | 0.00 | 0.00 | 0.00 | 35 | 1017.9 |
| 20260905162531 | 27 | 69 | 3.2 | 14.5 | 0.00 | 0.00 | 0.00 | 34 | 1017.9 |
| 20260905162025 | 27 | 22 | 1.6 | 16.1 | 0.00 | 0.00 | 0.00 | 33 | 1018.0 |
| 20260905161505 | 27 | 71 | 4.8 | 16.1 | 0.00 | 0.00 | 0.00 | 34 | 1018.0 |
| 20260905161003 | 27 | 47 | 0.0 | 11.3 | 0.00 | 0.00 | 0.00 | 34 | 1018.1 |
| 20260905160535 | 27 | 67 | 4.8 | 12.9 | 0.00 | 0.00 | 0.00 | 34 | 1018.1 |
| 20260905160009 | 27 | 360 | 1.6 | 6.4 | 0.00 | 0.00 | 0.00 | 34 | 1018.0 |
| 20260905155544 | 28 | 30 | 1.6 | 6.4 | 0.00 | 0.00 | 0.00 | 33 | 1018.1 |
| 20260905155037 | 27 | 22 | 3.2 | 6.4 | 0.00 | 0.00 | 0.00 | 33 | 1018.1 |
| 20260905154521 | 27 | 351 | 1.6 | 20.9 | 0.00 | 0.00 | 0.00 | 33 | 1018.1 |
| 20260905154021 | 27 | 229 | 3.2 | 20.9 | 0.00 | 0.00 | 0.00 | 34 | 1018.2 |
| 20260905153552 | 28 | 264 | 3.2 | 12.9 | 0.00 | 0.00 | 0.00 | 35 | 1018.2 |
| 20260905153033 | 28 | 207 | 3.2 | 11.3 | 0.00 | 0.00 | 0.00 | 39 | 1018.2 |
| 20260905152525 | 28 | 325 | 0.0 | 9.7 | 0.00 | 0.00 | 0.00 | 39 | 1018.0 |
| 20260905152019 | 28 | 40 | 4.8 | 11.3 | 0.00 | 0.00 | 0.00 | 39 | 1018.1 |
| 20260905151526 | 28 | 320 | 3.2 | 14.5 | 0.00 | 0.00 | 0.00 | 39 | 1018.1 |
| 20260905151048 | 28 | 51 | 1.6 | 17.7 | 0.00 | 0.00 | 0.00 | 39 | 1018.1 |
| 20260905150559 | 28 | 310 | 3.2 | 17.7 | 0.00 | 0.00 | 0.00 | 39 | 1018.2 |
| 20260905150503 | 28 | 330 | 4.8 | 17.7 | 0.00 | 0.00 | 0.00 | 39 | 1018.2 |
| 20260905150039 | 28 | 257 | 1.6 | 12.9 | 0.00 | 0.00 | 0.00 | 41 | 1018.2 |
| 20260905145538 | 28 | 342 | 4.8 | 14.5 | 0.00 | 0.00 | 0.00 | 45 | 1018.2 |
| 20260905145025 | 29 | 234 | 1.6 | 14.5 | 0.00 | 0.00 | 0.00 | 48 | 1018.2 |
| 20260905144507 | 29 | 303 | 4.8 | 14.5 | 0.00 | 0.00 | 0.00 | 43 | 1018.1 |
| 20260905144008 | 29 | 337 | 3.2 | 11.3 | 0.00 | 0.00 | 0.00 | 45 | 1018.1 |
| 20260905143525 | 30 | 309 | 3.2 | 14.5 | 0.00 | 0.00 | 0.00 | 44 | 1018.2 |
| 20260905143035 | 29 | 33 | 4.8 | 14.5 | 0.00 | 0.00 | 0.00 | 43 | 1018.2 |
| 20260905142515 | 29 | 355 | 6.4 | 14.5 | 0.00 | 0.00 | 0.00 | 44 | 1018.1 |
| 20260905142009 | 30 | 293 | 4.8 | 12.9 | 0.00 | 0.00 | 0.00 | 45 | 1018.3 |
| 20260905141547 | 30 | 265 | 3.2 | 12.9 | 0.00 | 0.00 | 0.00 | 46 | 1018.4 |
| 20260905141037 | 30 | 299 | 3.2 | 11.3 | 0.00 | 0.00 | 0.00 | 45 | 1018.3 |
| 20260905140509 | 30 | 211 | 3.2 | 22.5 | 0.00 | 0.00 | 0.00 | 44 | 1018.3 |
| 20260905140025 | 30 | 350 | 8.0 | 22.5 | 0.00 | 0.00 | 0.00 | 39 | 1018.3 |
| 20260905135545 | 30 | 290 | 3.2 | 9.7 | 0.00 | 0.00 | 0.00 | 37 | 1018.3 |
| 20260905135028 | 31 | 307 | 3.2 | 16.1 | 0.00 | 0.00 | 0.00 | 36 | 1018.3 |
| 20260905134551 | 31 | 252 | 4.8 | 16.1 | 0.00 | 0.00 | 0.00 | 35 | 1018.2 |
| 20260905134047 | 31 | 312 | 1.6 | 16.1 | 0.00 | 0.00 | 0.00 | 35 | 1018.2 |
| 20260905133550 | 31 | 237 | 3.2 | 16.1 | 0.00 | 0.00 | 0.00 | 33 | 1018.4 |
| 20260905133043 | 31 | 266 | 1.6 | 12.9 | 0.00 | 0.00 | 0.00 | 33 | 1018.4 |
| 20260905132504 | 31 | 236 | 4.8 | 12.9 | 0.00 | 0.00 | 0.00 | 32 | 1018.4 |
| 20260905132007 | 31 | 322 | 3.2 | 12.9 | 0.00 | 0.00 | 0.00 | 31 | 1018.5 |
| 20260905131550 | 31 | 21 | 4.8 | 16.1 | 0.00 | 0.00 | 0.00 | 32 | 1018.5 |
| 20260905131058 | 31 | 360 | 4.8 | 16.1 | 0.00 | 0.00 | 0.00 | 31 | 1018.5 |
| 20260905130517 | 31 | 15 | 4.8 | 12.9 | 0.00 | 0.00 | 0.00 | 30 | 1018.5 |
| 20260905130023 | 31 | 64 | 4.8 | 14.5 | 0.00 | 0.00 | 0.00 | 30 | 1018.5 |
| 20260905125555 | 31 | 325 | 4.8 | 17.7 | 0.00 | 0.00 | 0.00 | 30 | 1018.5 |
| 20260905125059 | 31 | 290 | 8.0 | 17.7 | 0.00 | 0.00 | 0.00 | 30 | 1018.6 |
| 20260905125001 | 31 | 287 | 3.2 | 14.5 | 0.00 | 0.00 | 0.00 | 30 | 1018.6 |
| 20260905124543 | 31 | 234 | 4.8 | 14.5 | 0.00 | 0.00 | 0.00 | 30 | 1018.5 |
| 20260905124030 | 31 | 342 | 4.8 | 12.9 | 0.00 | 0.00 | 0.00 | 29 | 1018.5 |
| 20260905123557 | 31 | 34 | 4.8 | 14.5 | 0.00 | 0.00 | 0.00 | 29 | 1018.5 |
| 20260905123005 | 31 | 343 | 4.8 | 16.1 | 0.00 | 0.00 | 0.00 | 30 | 1018.6 |
| 20260905122537 | 31 | 332 | 3.2 | 12.9 | 0.00 | 0.00 | 0.00 | 31 | 1018.6 |
| 20260905122026 | 32 | 55 | 3.2 | 11.3 | 0.00 | 0.00 | 0.00 | 30 | 1018.7 |
| 20260905121511 | 31 | 9 | 3.2 | 11.3 | 0.00 | 0.00 | 0.00 | 30 | 1018.6 |
| 20260905121012 | 31 | 347 | 4.8 | 19.3 | 0.00 | 0.00 | 0.00 | 31 | 1018.6 |
| 20260905120542 | 31 | 17 | 4.8 | 19.3 | 0.00 | 0.00 | 0.00 | 31 | 1018.8 |
| 20260905120016 | 31 | 344 | 1.6 | 17.7 | 0.00 | 0.00 | 0.00 | 30 | 1018.8 |
| 20260905115547 | 31 | 327 | 6.4 | 17.7 | 0.00 | 0.00 | 0.00 | 29 | 1018.8 |
| 20260905115043 | 31 | 221 | 3.2 | 12.9 | 0.00 | 0.00 | 0.00 | 29 | 1018.8 |
| 20260905114525 | 31 | 316 | 3.2 | 12.9 | 0.00 | 0.00 | 0.00 | 29 | 1018.8 |
| 20260905114017 | 31 | 290 | 4.8 | 17.7 | 0.00 | 0.00 | 0.00 | 28 | 1019.0 |
| 20260905113545 | 31 | 306 | 6.4 | 17.7 | 0.00 | 0.00 | 0.00 | 28 | 1019.1 |
| 20260905113019 | 32 | 287 | 3.2 | 16.1 | 0.00 | 0.00 | 0.00 | 28 | 1019.0 |
| 20260905112549 | 32 | 288 | 1.6 | 12.9 | 0.00 | 0.00 | 0.00 | 28 | 1018.9 |
| 20260905112044 | 32 | 323 | 3.2 | 14.5 | 0.00 | 0.00 | 0.00 | 28 | 1018.9 |
| 20260905111532 | 32 | 259 | 3.2 | 11.3 | 0.00 | 0.00 | 0.00 | 27 | 1018.9 |
| 20260905111024 | 32 | 315 | 3.2 | 12.9 | 0.00 | 0.00 | 0.00 | 27 | 1019.1 |
| 20260905110552 | 32 | 300 | 1.6 | 12.9 | 0.00 | 0.00 | 0.00 | 27 | 1019.0 |
| 20260905110018 | 32 | 276 | 1.6 | 11.3 | 0.00 | 0.00 | 0.00 | 30 | 1019.1 |
| 20260905105532 | 32 | 11 | 3.2 | 11.3 | 0.00 | 0.00 | 0.00 | 30 | 1019.0 |
| 20260905105026 | 32 | 28 | 4.8 | 11.3 | 0.00 | 0.00 | 0.00 | 29 | 1019.0 |
| 20260905104513 | 32 | 183 | 1.6 | 14.5 | 0.00 | 0.00 | 0.00 | 29 | 1019.0 |
| 20260905104005 | 32 | 234 | 1.6 | 11.3 | 0.00 | 0.00 | 0.00 | 30 | 1019.0 |
| 20260905103533 | 32 | 360 | 3.2 | 11.3 | 0.00 | 0.00 | 0.00 | 31 | 1019.0 |
| 20260905103009 | 32 | 35 | 1.6 | 12.9 | 0.00 | 0.00 | 0.00 | 31 | 1019.0 |
| 20260905102528 | 32 | 345 | 3.2 | 14.5 | 0.00 | 0.00 | 0.00 | 31 | 1019.0 |
| 20260905102024 | 31 | 360 | 4.8 | 14.5 | 0.00 | 0.00 | 0.00 | 31 | 1019.0 |
| 20260905101503 | 31 | 28 | 3.2 | 16.1 | 0.00 | 0.00 | 0.00 | 30 | 1019.1 |
| 20260905101058 | 31 | 9 | 6.4 | 14.5 | 0.00 | 0.00 | 0.00 | 30 | 1019.0 |
| 20260905100523 | 31 | 300 | 3.2 | 12.9 | 0.00 | 0.00 | 0.00 | 30 | 1019.1 |
| 20260905100031 | 31 | 21 | 1.6 | 11.3 | 0.00 | 0.00 | 0.00 | 30 | 1019.0 |
| 20260905095504 | 31 | 275 | 4.8 | 12.9 | 0.00 | 0.00 | 0.00 | 30 | 1019.1 |
| 20260905095059 | 31 | 286 | 1.6 | 12.9 | 0.00 | 0.00 | 0.00 | 30 | 1019.1 |
| 20260905094509 | 31 | 360 | 0.0 | 14.5 | 0.00 | 0.00 | 0.00 | 29 | 1019.2 |
| 20260905094055 | 31 | 293 | 1.6 | 12.9 | 0.00 | 0.00 | 0.00 | 29 | 1019.2 |
| 20260905093524 | 31 | 309 | 6.4 | 12.9 | 0.00 | 0.00 | 0.00 | 29 | 1019.2 |
| 20260905093031 | 31 | 218 | 1.6 | 8.0 | 0.00 | 0.00 | 0.00 | 28 | 1019.2 |
| 20260905092502 | 31 | 323 | 3.2 | 9.7 | 0.00 | 0.00 | 0.00 | 28 | 1019.3 |
| 20260905092057 | 31 | 57 | 0.0 | 9.7 | 0.00 | 0.00 | 0.00 | 27 | 1019.4 |
| 20260905091538 | 31 | 343 | 3.2 | 8.0 | 0.00 | 0.00 | 0.00 | 29 | 1019.3 |
| 20260905091025 | 30 | 327 | 1.6 | 12.9 | 0.00 | 0.00 | 0.00 | 30 | 1019.2 |
| 20260905090601 | 30 | 242 | 3.2 | 12.9 | 0.00 | 0.00 | 0.00 | 29 | 1019.2 |
| 20260905090012 | 30 | 178 | 1.6 | 11.3 | 0.00 | 0.00 | 0.00 | 29 | 1019.3 |
| 20260905085534 | 30 | 287 | 1.6 | 11.3 | 0.00 | 0.00 | 0.00 | 30 | 1019.4 |
| 20260905085026 | 30 | 322 | 3.2 | 8.0 | 0.00 | 0.00 | 0.00 | 31 | 1019.3 |
| 20260905084502 | 30 | 215 | 0.0 | 12.9 | 0.00 | 0.00 | 0.00 | 31 | 1019.3 |
| 20260905084003 | 29 | 153 | 3.2 | 12.9 | 0.00 | 0.00 | 0.00 | 30 | 1019.3 |
| 20260905083537 | 29 | 331 | 1.6 | 9.7 | 0.00 | 0.00 | 0.00 | 30 | 1019.3 |
| 20260905083033 | 29 | 313 | 1.6 | 12.9 | 0.00 | 0.00 | 0.00 | 30 | 1019.4 |
| 20260905082503 | 30 | 273 | 3.2 | 9.7 | 0.00 | 0.00 | 0.00 | 30 | 1019.3 |
| 20260905082059 | 30 | 24 | 4.8 | 9.7 | 0.00 | 0.00 | 0.00 | 30 | 1019.3 |
| 20260905081555 | 30 | 50 | 3.2 | 6.4 | 0.00 | 0.00 | 0.00 | 30 | 1019.3 |
| 20260905081042 | 29 | 16 | 1.6 | 6.4 | 0.00 | 0.00 | 0.00 | 31 | 1019.2 |
| 20260905080502 | 29 | 48 | 0.0 | 8.0 | 0.00 | 0.00 | 0.00 | 31 | 1019.2 |
| 20260905080101 | 28 | 296 | 1.6 | 8.0 | 0.00 | 0.00 | 0.00 | 30 | 1019.2 |
| 20260905075501 | 28 | 44 | 3.2 | 6.4 | 0.00 | 0.00 | 0.00 | 31 | 1019.1 |
| 20260905075054 | 28 | 30 | 1.6 | 4.8 | 0.00 | 0.00 | 0.00 | 32 | 1019.0 |
| 20260905074538 | 28 | 294 | 0.0 | 9.7 | 0.00 | 0.00 | 0.00 | 32 | 1019.0 |
| 20260905074028 | 27 | 296 | 1.6 | 9.7 | 0.00 | 0.00 | 0.00 | 33 | 1018.9 |
| 20260905073554 | 27 | 16 | 1.6 | 6.4 | 0.00 | 0.00 | 0.00 | 34 | 1018.9 |
| 20260905073055 | 27 | 342 | 0.0 | 6.4 | 0.00 | 0.00 | 0.00 | 34 | 1018.9 |
| 20260905072517 | 26 | 291 | 3.2 | 6.4 | 0.00 | 0.00 | 0.00 | 34 | 1018.9 |
| 20260905072013 | 26 | 296 | 0.0 | 3.2 | 0.00 | 0.00 | 0.00 | 37 | 1018.9 |
| 20260905071544 | 26 | 63 | 0.0 | 3.2 | 0.00 | 0.00 | 0.00 | 39 | 1018.9 |
| 20260905071020 | 25 | 78 | 0.0 | 3.2 | 0.00 | 0.00 | 0.00 | 40 | 1018.9 |
| 20260905070503 | 25 | 66 | 0.0 | 3.2 | 0.00 | 0.00 | 0.00 | 40 | 1018.9 |
| 20260905070055 | 25 | 111 | 1.6 | 3.2 | 0.00 | 0.00 | 0.00 | 40 | 1018.9 |